sat.trackr.live / text

‹ back to catalog

STARLINK-37322

NORAD 68715 · 2026-081S

PAYLOAD ACTIVE UNKNOWN

§ Identity

Operator
Country
US
Launch date
2026-04-14
Launch site
AFETR
Launch vehicle
Mass (kg)
RCS (m²)

Purposes: comms

External: N2YO · Heavens-Above · Gunter

§ Orbital elements

Epoch: 2026-09-19T11:44:20.375808Z

Period
93.85 min
Inclination
53.1560°
Eccentricity
0.0001859
Mean motion
15.34403678 rev/d
Perigee alt
461.4 km
Apogee alt
464.0 km
Semi-major
6,840.8 km
B*
5.1569e-4
RAAN
210.4130°
Arg perigee
86.0254°
Mean anomaly
274.0962°
Rev number
2,446

§ Raw data

STARLINK-373221 68715U 26081S   26262.48912472  .00017089  00000+0  51569-3 0  99922 68715  53.1560 210.4130 0001859  86.0254 274.0962 15.34403678 24465

JSON: /api/v1/satellites/68715 · /tle

For live sub-satellite position, see the globe view (requires WebGL).

§ Visibility from observer

Set your observer location to see the next 7 days of passes ≥ 10°. The values pass through the URL so the page stays shareable.

No JS? Fill the form by hand. The geolocation button needs JavaScript.